Flag for U.S.A. Weather past 2 weeks in Decatur, Illinois, U.S.A.

Now
80 °F

Sunny.


Feels Like: 83 °F
Forecast: 66 / 89 °F
Wind: 8 mph from Southwest

Location: Decatur Airport

Current Time: Aug 20, 2014 at 6:16:05 PM

Latest Report: Aug 20, 2014 at 5:54 PM


Visibility: 10 mi

Pressure: 29.93 "Hg

Humidity: 71%

Dew point: 70 °F

Location of DecaturLocation

Historic Weather in Decatur — Graph

°F

Decatur temperature yesterday

Maximum temperature yesterday: 84 °F (at 5:54 PM)
Minimum temperature yesterday: 69 °F (at 3:54 AM)
Average temperature yesterday: 77 °F

Past Weeks' High & Low Weather Summary

 TemperatureHumidityPressure
High84 °F (Aug 19, 5:54 PM)100% (Aug 18, 3:54 AM)30.10 "Hg (Aug 18, 3:54 AM)
Low55 °F (Aug 15, 3:54 AM)45% (Aug 13, 11:54 AM)29.76 "Hg (Aug 19, 6:54 PM)
Average71 °F81%29.95 "Hg
* Reported Aug 5 4:54 PM — Aug 20 4:54 PM, Decatur, Weather by CustomWeather, © 2014

Note: Actual official high and low records may vary slightly from our data, if they occured in-between our weather recording intervals... More about our weather records

Advertising

Decatur weather history for previous 24 hours

 ConditionsComfort  
Time TempWeatherWind HumidityBarometerVisibility
4:54 PM
Aug 20
81 °FSunny.12 mph67%29.93 "Hg10 mi
3:54 PM78 °FSunny.12 mph74%29.94 "Hg10 mi
2:54 PM75 °FSunny.12 mph85%29.96 "Hg10 mi
1:54 PM72 °FScattered clouds.7 mph91%29.97 "Hg10 mi
12:54 PM71 °FSunny.9 mph90%29.96 "Hg10 mi
11:54 AM71 °FLight rain. Partly sunny.5 mph93%29.95 "Hg7 mi
10:54 AM73 °FScattered clouds.5 mph90%29.95 "Hg10 mi
10:03 AM74 °FLight rain. Mostly cloudy.10 mph91%29.95 "Hg10 mi
9:56 AM75 °FLight rain. Fog.N/A88%29.96 "Hg5 mi
8:54 AM78 °FPassing clouds.6 mph82%29.89 "Hg10 mi
7:54 AM75 °FScattered clouds.3 mph88%29.90 "Hg10 mi
6:54 AM70 °FFog.3 mph93%29.87 "Hg5 mi
5:54 AM68 °FFog.5 mph96%29.87 "Hg6 mi
4:54 AM69 °FClear.6 mph93%29.85 "Hg7 mi
3:54 AM73 °FClear.6 mph90%29.83 "Hg10 mi
2:54 AM75 °FClear.8 mph88%29.82 "Hg10 mi
1:54 AM74 °FClear.5 mph91%29.82 "Hg10 mi
12:54 AM75 °FLight rain. Partly cloudy.6 mph88%29.82 "Hg10 mi
11:54 PM
Aug 19
74 °FClear.3 mph88%29.82 "Hg10 mi
10:54 PM72 °FClear.6 mph91%29.81 "Hg10 mi
9:54 PM76 °FClear.5 mph80%29.80 "Hg10 mi
8:54 PM77 °FClear.5 mph77%29.79 "Hg10 mi
7:54 PM80 °FSunny.6 mph67%29.77 "Hg10 mi
6:54 PM82 °FSunny.10 mph67%29.76 "Hg10 mi
Weather by CustomWeather, © 2014

See weather overviewHow to use our weather pages